Location: Dessau
(51.7984°N, 12.2168°E)
Time: 22:14:30
(UTC+01:00)

ISS - Pass Details

Date: 11 November 2017
Orbit: 402 x 407 km, 51.6° (Epoch: 22 November)

Event Time Altitude Azimuth Distance (km) Brightness Sun altitude
Exits shadow 05:09:51 73° 120° (ESE) 425 -3.7 -20.6°
Drops below altitude 10° 05:12:52 10° 100° (E) 1,456 0.2 -20.1°
Sets 05:14:56 0° 100° (E) 2,315 1.6 -19.8°
